STARLINK-11078 (58710 NORAD) Tracking and Keplerian Element Data

This shows tracking and keplerian element data for the satellite.

Feedback or suggestion? Click here.




ElementValue
Catalog58710
NameSTARLINK-11078
Epoch Orbit277
Epoch Day13.25002315
Epoch Year2024
RAAN198.0799
Inclination53.1727
Eccentricity0.00013
Argument of Perigee64.7003
Mean Anonmoly163.7384
Mean Motion15.77840054
Decay Rate-0.01365439
L11 58710U 24002F 24013.25002315 -.01365439 00000+0 -89043-2 0 9995
L22 58710 53.1727 198.0799 0001300 64.7003 163.7384 15.77840054 2774



Live tracking and technical data element details for STARLINK-11078 (NORAD 58710). STARLINK-11078 can be tracked NOW for your location showing map with azimuth and elevation plus other details from your city location.







IsCatalogInMostPopularTable: catalog: 58710, numindb: 31
Update: records affected: 1



GetName: 58710 STARLINK-11078

Hit Count: updated at: Wed, 17 Apr 2024 03:14:38 GMT